owner,sensor,date,latitude,longitude,sea_surface_height_above_sea_level,qcFlag 
TCOON,ioos:station:TCOON:031:1,2014-02-01T00:06:00Z,28.4073,-96.7122,0.425,1111122 
TCOON,ioos:station:TCOON:031:1,2014-02-01T00:36:00Z,28.4073,-96.7122,0.425,1111122 
TCOON,ioos:station:TCOON:031:1,2014-02-01T01:06:00Z,28.4073,-96.7122,0.425,1111122 
TCOON,ioos:station:TCOON:031:1,2014-02-01T01:36:00Z,28.4073,-96.7122,0.426,1111122 
TCOON,ioos:station:TCOON:031:1,2014-02-01T02:06:00Z,28.4073,-96.7122,0.428,1111122 
TCOON,ioos:station:TCOON:031:1,2014-02-01T02:36:00Z,28.4073,-96.7122,0.429,1111122 
TCOON,ioos:station:TCOON:031:1,2014-02-01T03:06:00Z,28.4073,-96.7122,0.43,1111122 
TCOON,ioos:station:TCOON:031:1,2014-02-01T03:36:00Z,28.4073,-96.7122,0.437,1111122 
TCOON,ioos:station:TCOON:031:1,2014-02-01T04:06:00Z,28.4073,-96.7122,0.439,1111122 
TCOON,ioos:station:TCOON:031:1,2014-02-01T04:36:00Z,28.4073,-96.7122,0.441,1111122 
TCOON,ioos:station:TCOON:031:1,2014-02-01T05:06:00Z,28.4073,-96.7122,0.448,1111122 
TCOON,ioos:station:TCOON:031:1,2014-02-01T05:54:00Z,28.4073,-96.7122,0.453,1111122 
TCOON,ioos:station:TCOON:031:1,2014-02-01T06:36:00Z,28.4073,-96.7122,0.477,1111122 
TCOON,ioos:station:TCOON:031:1,2014-02-01T07:06:00Z,28.4073,-96.7122,0.479,1111122 
TCOON,ioos:station:TCOON:031:1,2014-02-01T07:36:00Z,28.4073,-96.7122,0.478,1111122 
TCOON,ioos:station:TCOON:031:1,2014-02-01T08:06:00Z,28.4073,-96.7122,0.472,1111122 
TCOON,ioos:station:TCOON:031:1,2014-02-01T08:36:00Z,28.4073,-96.7122,0.462,1111122 
TCOON,ioos:station:TCOON:031:1,2014-02-01T09:06:00Z,28.4073,-96.7122,0.463,1111122 
TCOON,ioos:station:TCOON:031:1,2014-02-01T09:36:00Z,28.4073,-96.7122,0.463,1111122 
TCOON,ioos:station:TCOON:031:1,2014-02-01T10:06:00Z,28.4073,-96.7122,0.465,1111122 
TCOON,ioos:station:TCOON:031:1,2014-02-01T10:36:00Z,28.4073,-96.7122,0.474,1111122 
TCOON,ioos:station:TCOON:031:1,2014-02-01T11:06:00Z,28.4073,-96.7122,0.475,1111122 
TCOON,ioos:station:TCOON:031:1,2014-02-01T11:36:00Z,28.4073,-96.7122,0.478,1111122 
TCOON,ioos:station:TCOON:031:1,2014-02-01T12:06:00Z,28.4073,-96.7122,0.491,1111122 
TCOON,ioos:station:TCOON:031:1,2014-02-01T12:42:00Z,28.4073,-96.7122,0.494,1111122 
TCOON,ioos:station:TCOON:031:1,2014-02-01T13:06:00Z,28.4073,-96.7122,0.498,1111122 
TCOON,ioos:station:TCOON:031:1,2014-02-01T13:36:00Z,28.4073,-96.7122,0.498,1111122 
TCOON,ioos:station:TCOON:031:1,2014-02-01T14:06:00Z,28.4073,-96.7122,0.498,1111122 
TCOON,ioos:station:TCOON:031:1,2014-02-01T14:36:00Z,28.4073,-96.7122,0.497,1111122 
TCOON,ioos:station:TCOON:031:1,2014-02-01T15:06:00Z,28.4073,-96.7122,0.498,1111122 
TCOON,ioos:station:TCOON:031:1,2014-02-01T15:30:00Z,28.4073,-96.7122,0.498,1111122 
TCOON,ioos:station:TCOON:031:1,2014-02-01T16:06:00Z,28.4073,-96.7122,0.498,1111122 
TCOON,ioos:station:TCOON:031:1,2014-02-01T16:36:00Z,28.4073,-96.7122,0.5,1111122 
TCOON,ioos:station:TCOON:031:1,2014-02-01T17:06:00Z,28.4073,-96.7122,0.5,1111122 
TCOON,ioos:station:TCOON:031:1,2014-02-01T17:30:00Z,28.4073,-96.7122,0.501,1111122 
TCOON,ioos:station:TCOON:031:1,2014-02-01T18:00:00Z,28.4073,-96.7122,0.501,1111122 
TCOON,ioos:station:TCOON:031:1,2014-02-01T18:36:00Z,28.4073,-96.7122,0.501,1111122 
TCOON,ioos:station:TCOON:031:1,2014-02-01T19:06:00Z,28.4073,-96.7122,0.5,1111122 
TCOON,ioos:station:TCOON:031:1,2014-02-01T19:36:00Z,28.4073,-96.7122,0.5,1111122 
TCOON,ioos:station:TCOON:031:1,2014-02-01T20:06:00Z,28.4073,-96.7122,0.497,1111122 
TCOON,ioos:station:TCOON:031:1,2014-02-01T20:36:00Z,28.4073,-96.7122,0.474,1111122 
TCOON,ioos:station:TCOON:031:1,2014-02-01T21:06:00Z,28.4073,-96.7122,0.474,1111122 
TCOON,ioos:station:TCOON:031:1,2014-02-01T21:36:00Z,28.4073,-96.7122,0.474,1111122 
TCOON,ioos:station:TCOON:031:1,2014-02-01T22:00:00Z,28.4073,-96.7122,0.473,1111122 
TCOON,ioos:station:TCOON:031:1,2014-02-01T22:36:00Z,28.4073,-96.7122,0.471,1111122 
TCOON,ioos:station:TCOON:031:1,2014-02-01T23:06:00Z,28.4073,-96.7122,0.453,1111122 
TCOON,ioos:station:TCOON:031:1,2014-02-01T23:36:00Z,28.4073,-96.7122,0.453,1111122 
TCOON,ioos:station:TCOON:031:1,2014-02-02T00:06:00Z,28.4073,-96.7122,0.452,1111122 
TCOON,ioos:station:TCOON:031:1,2014-02-02T00:36:00Z,28.4073,-96.7122,0.451,1111122 
TCOON,ioos:station:TCOON:031:1,2014-02-02T01:00:00Z,28.4073,-96.7122,0.451,1111122 
TCOON,ioos:station:TCOON:031:1,2014-02-02T01:36:00Z,28.4073,-96.7122,0.452,1111122 
TCOON,ioos:station:TCOON:031:1,2014-02-02T02:06:00Z,28.4073,-96.7122,0.452,1111122 
TCOON,ioos:station:TCOON:031:1,2014-02-02T02:36:00Z,28.4073,-96.7122,0.452,1111122 
TCOON,ioos:station:TCOON:031:1,2014-02-02T03:06:00Z,28.4073,-96.7122,0.452,1111122 
TCOON,ioos:station:TCOON:031:1,2014-02-02T03:36:00Z,28.4073,-96.7122,0.452,1111122 
TCOON,ioos:station:TCOON:031:1,2014-02-02T04:06:00Z,28.4073,-96.7122,0.452,1111122 
TCOON,ioos:station:TCOON:031:1,2014-02-02T04:36:00Z,28.4073,-96.7122,0.451,1111122 
TCOON,ioos:station:TCOON:031:1,2014-02-02T05:06:00Z,28.4073,-96.7122,0.451,1111122 
TCOON,ioos:station:TCOON:031:1,2014-02-02T05:36:00Z,28.4073,-96.7122,0.449,1111122 
TCOON,ioos:station:TCOON:031:1,2014-02-02T06:06:00Z,28.4073,-96.7122,0.449,1111122 
TCOON,ioos:station:TCOON:031:1,2014-02-02T06:36:00Z,28.4073,-96.7122,0.449,1111122 
TCOON,ioos:station:TCOON:031:1,2014-02-02T07:06:00Z,28.4073,-96.7122,0.449,1111122 
TCOON,ioos:station:TCOON:031:1,2014-02-02T07:36:00Z,28.4073,-96.7122,0.449,1111122 
TCOON,ioos:station:TCOON:031:1,2014-02-02T08:06:00Z,28.4073,-96.7122,0.449,1111122 
TCOON,ioos:station:TCOON:031:1,2014-02-02T08:36:00Z,28.4073,-96.7122,0.45,1111122 
TCOON,ioos:station:TCOON:031:1,2014-02-02T09:06:00Z,28.4073,-96.7122,0.45,1111122 
TCOON,ioos:station:TCOON:031:1,2014-02-02T09:36:00Z,28.4073,-96.7122,0.451,1111122 
TCOON,ioos:station:TCOON:031:1,2014-02-02T10:06:00Z,28.4073,-96.7122,0.451,1111122 
TCOON,ioos:station:TCOON:031:1,2014-02-02T10:36:00Z,28.4073,-96.7122,0.451,1111122 
TCOON,ioos:station:TCOON:031:1,2014-02-02T11:06:00Z,28.4073,-96.7122,0.451,1111122 
TCOON,ioos:station:TCOON:031:1,2014-02-02T11:36:00Z,28.4073,-96.7122,0.452,1111122 
TCOON,ioos:station:TCOON:031:1,2014-02-02T12:06:00Z,28.4073,-96.7122,0.452,1111122 
TCOON,ioos:station:TCOON:031:1,2014-02-02T12:36:00Z,28.4073,-96.7122,0.453,1111122 
TCOON,ioos:station:TCOON:031:1,2014-02-02T13:06:00Z,28.4073,-96.7122,0.454,1111122 
TCOON,ioos:station:TCOON:031:1,2014-02-02T13:36:00Z,28.4073,-96.7122,0.456,1111122 
TCOON,ioos:station:TCOON:031:1,2014-02-02T14:06:00Z,28.4073,-96.7122,0.457,1111122 
TCOON,ioos:station:TCOON:031:1,2014-02-02T14:36:00Z,28.4073,-96.7122,0.458,1111122 
TCOON,ioos:station:TCOON:031:1,2014-02-02T15:06:00Z,28.4073,-96.7122,0.46,1111122 
TCOON,ioos:station:TCOON:031:1,2014-02-02T15:36:00Z,28.4073,-96.7122,0.461,1111122 
TCOON,ioos:station:TCOON:031:1,2014-02-02T16:06:00Z,28.4073,-96.7122,0.457,1111122 
TCOON,ioos:station:TCOON:031:1,2014-02-02T17:06:00Z,28.4073,-96.7122,0.339,1111122 
TCOON,ioos:station:TCOON:031:1,2014-02-02T17:36:00Z,28.4073,-96.7122,0.274,1111122 
TCOON,ioos:station:TCOON:031:1,2014-02-02T18:06:00Z,28.4073,-96.7122,0.233,1111122 
TCOON,ioos:station:TCOON:031:1,2014-02-02T18:36:00Z,28.4073,-96.7122,0.234,1111122 
TCOON,ioos:station:TCOON:031:1,2014-02-02T19:06:00Z,28.4073,-96.7122,0.236,1111122 
TCOON,ioos:station:TCOON:031:1,2014-02-02T19:36:00Z,28.4073,-96.7122,0.228,1111122 
TCOON,ioos:station:TCOON:031:1,2014-02-02T20:06:00Z,28.4073,-96.7122,0.243,1111122 
TCOON,ioos:station:TCOON:031:1,2014-02-02T20:36:00Z,28.4073,-96.7122,0.221,1111122 
TCOON,ioos:station:TCOON:031:1,2014-02-02T21:24:00Z,28.4073,-96.7122,0.235,1111122 
TCOON,ioos:station:TCOON:031:1,2014-02-02T22:00:00Z,28.4073,-96.7122,0.214,1111122 
TCOON,ioos:station:TCOON:031:1,2014-02-02T22:36:00Z,28.4073,-96.7122,0.211,1111122 
TCOON,ioos:station:TCOON:031:1,2014-02-02T23:06:00Z,28.4073,-96.7122,0.214,1111122 
TCOON,ioos:station:TCOON:031:1,2014-02-02T23:36:00Z,28.4073,-96.7122,0.223,1111122 
TCOON,ioos:station:TCOON:031:1,2014-02-03T00:06:00Z,28.4073,-96.7122,0.224,1111122 
TCOON,ioos:station:TCOON:031:1,2014-02-03T00:36:00Z,28.4073,-96.7122,0.239,1111122 
TCOON,ioos:station:TCOON:031:1,2014-02-03T01:06:00Z,28.4073,-96.7122,0.247,1111122 
TCOON,ioos:station:TCOON:031:1,2014-02-03T01:36:00Z,28.4073,-96.7122,0.256,1111122 
TCOON,ioos:station:TCOON:031:1,2014-02-03T02:06:00Z,28.4073,-96.7122,0.256,1111122 
TCOON,ioos:station:TCOON:031:1,2014-02-03T02:36:00Z,28.4073,-96.7122,0.268,1111122 
TCOON,ioos:station:TCOON:031:1,2014-02-03T03:06:00Z,28.4073,-96.7122,0.259,1111122 
TCOON,ioos:station:TCOON:031:1,2014-02-03T04:36:00Z,28.4073,-96.7122,0.262,1111122 
TCOON,ioos:station:TCOON:031:1,2014-02-03T05:06:00Z,28.4073,-96.7122,0.255,1111122 
TCOON,ioos:station:TCOON:031:1,2014-02-03T06:06:00Z,28.4073,-96.7122,0.259,1111122 
TCOON,ioos:station:TCOON:031:1,2014-02-03T06:36:00Z,28.4073,-96.7122,0.273,1111122 
TCOON,ioos:station:TCOON:031:1,2014-02-03T07:06:00Z,28.4073,-96.7122,0.309,1111122 
TCOON,ioos:station:TCOON:031:1,2014-02-03T07:36:00Z,28.4073,-96.7122,0.275,1111122 
TCOON,ioos:station:TCOON:031:1,2014-02-03T08:06:00Z,28.4073,-96.7122,0.271,1111122 
TCOON,ioos:station:TCOON:031:1,2014-02-03T08:36:00Z,28.4073,-96.7122,0.276,1111122 
TCOON,ioos:station:TCOON:031:1,2014-02-03T09:06:00Z,28.4073,-96.7122,0.264,1111122 
TCOON,ioos:station:TCOON:031:1,2014-02-03T10:00:00Z,28.4073,-96.7122,0.302,1111122 
TCOON,ioos:station:TCOON:031:1,2014-02-03T10:36:00Z,28.4073,-96.7122,0.303,1111122 
TCOON,ioos:station:TCOON:031:1,2014-02-03T11:06:00Z,28.4073,-96.7122,0.308,1111122 
TCOON,ioos:station:TCOON:031:1,2014-02-03T11:36:00Z,28.4073,-96.7122,0.313,1111122 
TCOON,ioos:station:TCOON:031:1,2014-02-03T12:24:00Z,28.4073,-96.7122,0.319,1111122 
TCOON,ioos:station:TCOON:031:1,2014-02-03T13:06:00Z,28.4073,-96.7122,0.307,1111122 
TCOON,ioos:station:TCOON:031:1,2014-02-03T13:36:00Z,28.4073,-96.7122,0.287,1111122 
TCOON,ioos:station:TCOON:031:1,2014-02-03T14:06:00Z,28.4073,-96.7122,0.264,1111122 
TCOON,ioos:station:TCOON:031:1,2014-02-03T14:36:00Z,28.4073,-96.7122,0.277,1111122 
TCOON,ioos:station:TCOON:031:1,2014-02-03T15:06:00Z,28.4073,-96.7122,0.299,1111122 
TCOON,ioos:station:TCOON:031:1,2014-02-03T15:36:00Z,28.4073,-96.7122,0.309,1111122 
TCOON,ioos:station:TCOON:031:1,2014-02-03T17:06:00Z,28.4073,-96.7122,0.355,1111122 
TCOON,ioos:station:TCOON:031:1,2014-02-03T17:36:00Z,28.4073,-96.7122,0.345,1111122 
TCOON,ioos:station:TCOON:031:1,2014-02-03T18:36:00Z,28.4073,-96.7122,0.324,1111122 
TCOON,ioos:station:TCOON:031:1,2014-02-03T19:06:00Z,28.4073,-96.7122,0.297,1111122 
TCOON,ioos:station:TCOON:031:1,2014-02-03T19:36:00Z,28.4073,-96.7122,0.312,1111122 
TCOON,ioos:station:TCOON:031:1,2014-02-03T20:06:00Z,28.4073,-96.7122,0.332,1111122 
TCOON,ioos:station:TCOON:031:1,2014-02-03T20:36:00Z,28.4073,-96.7122,0.33,1111122 
TCOON,ioos:station:TCOON:031:1,2014-02-03T21:06:00Z,28.4073,-96.7122,0.33,1111122 
TCOON,ioos:station:TCOON:031:1,2014-02-03T21:36:00Z,28.4073,-96.7122,0.327,1111122 
TCOON,ioos:station:TCOON:031:1,2014-02-03T22:06:00Z,28.4073,-96.7122,0.327,1111122 
TCOON,ioos:station:TCOON:031:1,2014-02-03T22:48:00Z,28.4073,-96.7122,0.326,1111122 
TCOON,ioos:station:TCOON:031:1,2014-02-04T00:18:00Z,28.4073,-96.7122,0.307,1111122 
TCOON,ioos:station:TCOON:031:1,2014-02-04T01:06:00Z,28.4073,-96.7122,0.288,1111122 
TCOON,ioos:station:TCOON:031:1,2014-02-04T01:36:00Z,28.4073,-96.7122,0.285,1111122 
TCOON,ioos:station:TCOON:031:1,2014-02-04T02:06:00Z,28.4073,-96.7122,0.288,1111122 
TCOON,ioos:station:TCOON:031:1,2014-02-04T02:36:00Z,28.4073,-96.7122,0.286,1111122 
TCOON,ioos:station:TCOON:031:1,2014-02-04T03:06:00Z,28.4073,-96.7122,0.281,1111122 
TCOON,ioos:station:TCOON:031:1,2014-02-04T03:36:00Z,28.4073,-96.7122,0.237,1111122 
TCOON,ioos:station:TCOON:031:1,2014-02-04T04:06:00Z,28.4073,-96.7122,0.251,1111122 
TCOON,ioos:station:TCOON:031:1,2014-02-04T05:24:00Z,28.4073,-96.7122,0.296,1111122 
TCOON,ioos:station:TCOON:031:1,2014-02-04T05:36:00Z,28.4073,-96.7122,0.3,1111122 
TCOON,ioos:station:TCOON:031:1,2014-02-04T06:24:00Z,28.4073,-96.7122,0.304,1111122 
TCOON,ioos:station:TCOON:031:1,2014-02-04T06:36:00Z,28.4073,-96.7122,0.309,1111122 
TCOON,ioos:station:TCOON:031:1,2014-02-04T07:06:00Z,28.4073,-96.7122,0.316,1111122 
TCOON,ioos:station:TCOON:031:1,2014-02-14T14:30:00Z,28.4073,-96.7122,0.322,1111122 
TCOON,ioos:station:TCOON:031:1,2014-02-14T15:00:00Z,28.4073,-96.7122,0.322,1111122 
TCOON,ioos:station:TCOON:031:1,2014-02-14T15:30:00Z,28.4073,-96.7122,0.323,1111122 
TCOON,ioos:station:TCOON:031:1,2014-02-14T16:00:00Z,28.4073,-96.7122,0.35,1111122 
TCOON,ioos:station:TCOON:031:1,2014-02-14T16:30:00Z,28.4073,-96.7122,0.371,1111122 
TCOON,ioos:station:TCOON:031:1,2014-02-14T17:00:00Z,28.4073,-96.7122,0.372,1111122 
TCOON,ioos:station:TCOON:031:1,2014-02-14T17:30:00Z,28.4073,-96.7122,0.371,1111122 
TCOON,ioos:station:TCOON:031:1,2014-02-14T18:00:00Z,28.4073,-96.7122,0.37,1111122 
TCOON,ioos:station:TCOON:031:1,2014-02-14T18:30:00Z,28.4073,-96.7122,0.367,1111122 
TCOON,ioos:station:TCOON:031:1,2014-02-14T19:00:00Z,28.4073,-96.7122,0.377,1111122 
TCOON,ioos:station:TCOON:031:1,2014-02-14T19:30:00Z,28.4073,-96.7122,0.367,1111122 
TCOON,ioos:station:TCOON:031:1,2014-02-14T20:00:00Z,28.4073,-96.7122,0.348,1111122 
TCOON,ioos:station:TCOON:031:1,2014-02-14T20:30:00Z,28.4073,-96.7122,0.334,1111122 
TCOON,ioos:station:TCOON:031:1,2014-02-14T21:00:00Z,28.4073,-96.7122,0.319,1111122 
TCOON,ioos:station:TCOON:031:1,2014-02-14T21:30:00Z,28.4073,-96.7122,0.315,1111122 
TCOON,ioos:station:TCOON:031:1,2014-02-14T22:00:00Z,28.4073,-96.7122,0.316,1111122 
TCOON,ioos:station:TCOON:031:1,2014-02-14T22:30:00Z,28.4073,-96.7122,0.315,1111122 
TCOON,ioos:station:TCOON:031:1,2014-02-14T23:00:00Z,28.4073,-96.7122,0.293,1111122 
TCOON,ioos:station:TCOON:031:1,2014-02-14T23:36:00Z,28.4073,-96.7122,0.292,1111122 
TCOON,ioos:station:TCOON:031:1,2014-02-15T00:00:00Z,28.4073,-96.7122,0.277,1111122 
TCOON,ioos:station:TCOON:031:1,2014-02-15T00:30:00Z,28.4073,-96.7122,0.278,1111122 
TCOON,ioos:station:TCOON:031:1,2014-02-15T01:00:00Z,28.4073,-96.7122,0.28,1111122 
TCOON,ioos:station:TCOON:031:1,2014-02-15T01:30:00Z,28.4073,-96.7122,0.266,1111122 
TCOON,ioos:station:TCOON:031:1,2014-02-15T02:00:00Z,28.4073,-96.7122,0.269,1111122 
TCOON,ioos:station:TCOON:031:1,2014-02-15T02:30:00Z,28.4073,-96.7122,0.276,1111122 
TCOON,ioos:station:TCOON:031:1,2014-02-15T03:00:00Z,28.4073,-96.7122,0.289,1111122 
TCOON,ioos:station:TCOON:031:1,2014-02-15T03:30:00Z,28.4073,-96.7122,0.292,1111122 
TCOON,ioos:station:TCOON:031:1,2014-02-15T04:00:00Z,28.4073,-96.7122,0.293,1111122 
TCOON,ioos:station:TCOON:031:1,2014-02-15T04:30:00Z,28.4073,-96.7122,0.289,1111122 
TCOON,ioos:station:TCOON:031:1,2014-02-15T05:00:00Z,28.4073,-96.7122,0.295,1111122 
TCOON,ioos:station:TCOON:031:1,2014-02-15T05:30:00Z,28.4073,-96.7122,0.286,1111122 
TCOON,ioos:station:TCOON:031:1,2014-02-15T06:00:00Z,28.4073,-96.7122,0.286,1111122 
TCOON,ioos:station:TCOON:031:1,2014-02-15T06:30:00Z,28.4073,-96.7122,0.304,1111122 
TCOON,ioos:station:TCOON:031:1,2014-02-15T07:00:00Z,28.4073,-96.7122,0.303,1111122 
TCOON,ioos:station:TCOON:031:1,2014-02-15T07:30:00Z,28.4073,-96.7122,0.301,1111122 
TCOON,ioos:station:TCOON:031:1,2014-02-15T08:00:00Z,28.4073,-96.7122,0.297,1111122 
TCOON,ioos:station:TCOON:031:1,2014-02-15T08:30:00Z,28.4073,-96.7122,0.311,1111122 
TCOON,ioos:station:TCOON:031:1,2014-02-15T09:00:00Z,28.4073,-96.7122,0.299,1111122 
TCOON,ioos:station:TCOON:031:1,2014-02-15T09:30:00Z,28.4073,-96.7122,0.298,1111122 
TCOON,ioos:station:TCOON:031:1,2014-02-15T14:00:00Z,28.4073,-96.7122,0.341,1111122 
TCOON,ioos:station:TCOON:031:1,2014-02-15T14:30:00Z,28.4073,-96.7122,0.336,1111122 
TCOON,ioos:station:TCOON:031:1,2014-02-15T15:00:00Z,28.4073,-96.7122,0.331,1111122 
TCOON,ioos:station:TCOON:031:1,2014-02-15T15:30:00Z,28.4073,-96.7122,0.303,1111122 
TCOON,ioos:station:TCOON:031:1,2014-02-15T16:00:00Z,28.4073,-96.7122,0.302,1111122 
TCOON,ioos:station:TCOON:031:1,2014-02-15T16:30:00Z,28.4073,-96.7122,0.315,1111122 
TCOON,ioos:station:TCOON:031:1,2014-02-15T17:00:00Z,28.4073,-96.7122,0.311,1111122 
TCOON,ioos:station:TCOON:031:1,2014-02-15T17:30:00Z,28.4073,-96.7122,0.331,1111122 
TCOON,ioos:station:TCOON:031:1,2014-02-15T18:00:00Z,28.4073,-96.7122,0.354,1111122 
TCOON,ioos:station:TCOON:031:1,2014-02-15T18:30:00Z,28.4073,-96.7122,0.325,1111122 
TCOON,ioos:station:TCOON:031:1,2014-02-15T19:00:00Z,28.4073,-96.7122,0.321,1111122 
TCOON,ioos:station:TCOON:031:1,2014-02-15T19:30:00Z,28.4073,-96.7122,0.325,1111122 
TCOON,ioos:station:TCOON:031:1,2014-02-15T20:06:00Z,28.4073,-96.7122,0.33,1111122 
TCOON,ioos:station:TCOON:031:1,2014-02-15T20:48:00Z,28.4073,-96.7122,0.332,1111122 
TCOON,ioos:station:TCOON:031:1,2014-02-15T21:36:00Z,28.4073,-96.7122,0.319,1111122 
TCOON,ioos:station:TCOON:031:1,2014-02-15T22:00:00Z,28.4073,-96.7122,0.32,1111122 
TCOON,ioos:station:TCOON:031:1,2014-02-15T22:30:00Z,28.4073,-96.7122,0.319,1111122 
TCOON,ioos:station:TCOON:031:1,2014-02-15T23:00:00Z,28.4073,-96.7122,0.319,1111122 
TCOON,ioos:station:TCOON:031:1,2014-02-15T23:30:00Z,28.4073,-96.7122,0.317,1111122 
TCOON,ioos:station:TCOON:031:1,2014-02-16T00:00:00Z,28.4073,-96.7122,0.313,1111122 
TCOON,ioos:station:TCOON:031:1,2014-02-16T00:30:00Z,28.4073,-96.7122,0.308,1111122 
TCOON,ioos:station:TCOON:031:1,2014-02-16T01:00:00Z,28.4073,-96.7122,0.315,1111122 
TCOON,ioos:station:TCOON:031:1,2014-02-16T01:30:00Z,28.4073,-96.7122,0.314,1111122 
TCOON,ioos:station:TCOON:031:1,2014-02-16T02:00:00Z,28.4073,-96.7122,0.313,1111122 
TCOON,ioos:station:TCOON:031:1,2014-02-16T02:30:00Z,28.4073,-96.7122,0.309,1111122 
TCOON,ioos:station:TCOON:031:1,2014-02-16T03:00:00Z,28.4073,-96.7122,0.318,1111122 
TCOON,ioos:station:TCOON:031:1,2014-02-16T03:30:00Z,28.4073,-96.7122,0.324,1111122 
TCOON,ioos:station:TCOON:031:1,2014-02-16T04:00:00Z,28.4073,-96.7122,0.317,1111122 
TCOON,ioos:station:TCOON:031:1,2014-02-16T04:30:00Z,28.4073,-96.7122,0.322,1111122 
TCOON,ioos:station:TCOON:031:1,2014-02-16T05:00:00Z,28.4073,-96.7122,0.326,1111122 
TCOON,ioos:station:TCOON:031:1,2014-02-16T05:48:00Z,28.4073,-96.7122,0.336,1111122 
TCOON,ioos:station:TCOON:031:1,2014-02-16T06:00:00Z,28.4073,-96.7122,0.337,1111122 
TCOON,ioos:station:TCOON:031:1,2014-02-16T06:30:00Z,28.4073,-96.7122,0.337,1111122 
TCOON,ioos:station:TCOON:031:1,2014-02-16T07:00:00Z,28.4073,-96.7122,0.337,1111122 
TCOON,ioos:station:TCOON:031:1,2014-02-16T07:30:00Z,28.4073,-96.7122,0.337,1111122 
TCOON,ioos:station:TCOON:031:1,2014-02-16T08:00:00Z,28.4073,-96.7122,0.332,1111122 
TCOON,ioos:station:TCOON:031:1,2014-02-16T08:30:00Z,28.4073,-96.7122,0.318,1111122 
TCOON,ioos:station:TCOON:031:1,2014-02-16T09:00:00Z,28.4073,-96.7122,0.318,1111122 
TCOON,ioos:station:TCOON:031:1,2014-02-16T09:30:00Z,28.4073,-96.7122,0.318,1111122 
TCOON,ioos:station:TCOON:031:1,2014-02-16T10:00:00Z,28.4073,-96.7122,0.318,1111122 
TCOON,ioos:station:TCOON:031:1,2014-02-16T11:00:00Z,28.4073,-96.7122,0.318,1111122 
TCOON,ioos:station:TCOON:031:1,2014-02-16T11:30:00Z,28.4073,-96.7122,0.318,1111122 
TCOON,ioos:station:TCOON:031:1,2014-02-16T12:00:00Z,28.4073,-96.7122,0.319,1111122 
TCOON,ioos:station:TCOON:031:1,2014-02-16T12:30:00Z,28.4073,-96.7122,0.319,1111122 
TCOON,ioos:station:TCOON:031:1,2014-02-16T13:00:00Z,28.4073,-96.7122,0.32,1111122 
TCOON,ioos:station:TCOON:031:1,2014-02-16T13:30:00Z,28.4073,-96.7122,0.321,1111122 
TCOON,ioos:station:TCOON:031:1,2014-02-16T14:00:00Z,28.4073,-96.7122,0.321,1111122 
TCOON,ioos:station:TCOON:031:1,2014-02-16T14:30:00Z,28.4073,-96.7122,0.323,1111122 
TCOON,ioos:station:TCOON:031:1,2014-02-16T15:00:00Z,28.4073,-96.7122,0.324,1111122 
TCOON,ioos:station:TCOON:031:1,2014-02-16T15:30:00Z,28.4073,-96.7122,0.325,1111122 
TCOON,ioos:station:TCOON:031:1,2014-02-16T16:00:00Z,28.4073,-96.7122,0.325,1111122 
TCOON,ioos:station:TCOON:031:1,2014-02-16T16:30:00Z,28.4073,-96.7122,0.325,1111122 
TCOON,ioos:station:TCOON:031:1,2014-02-16T17:00:00Z,28.4073,-96.7122,0.324,1111122 
TCOON,ioos:station:TCOON:031:1,2014-02-16T17:30:00Z,28.4073,-96.7122,0.326,1111122 
TCOON,ioos:station:TCOON:031:1,2014-02-16T18:00:00Z,28.4073,-96.7122,0.326,1111122 
TCOON,ioos:station:TCOON:031:1,2014-02-16T18:30:00Z,28.4073,-96.7122,0.323,1111122 
TCOON,ioos:station:TCOON:031:1,2014-02-16T19:00:00Z,28.4073,-96.7122,0.314,1111122 
TCOON,ioos:station:TCOON:031:1,2014-02-16T19:30:00Z,28.4073,-96.7122,0.314,1111122 
TCOON,ioos:station:TCOON:031:1,2014-02-16T20:00:00Z,28.4073,-96.7122,0.313,1111122 
TCOON,ioos:station:TCOON:031:1,2014-02-16T20:36:00Z,28.4073,-96.7122,0.313,1111122 
TCOON,ioos:station:TCOON:031:1,2014-02-16T21:06:00Z,28.4073,-96.7122,0.314,1111122 
TCOON,ioos:station:TCOON:031:1,2014-02-16T21:36:00Z,28.4073,-96.7122,0.315,1111122 
TCOON,ioos:station:TCOON:031:1,2014-02-16T22:00:00Z,28.4073,-96.7122,0.315,1111122 
TCOON,ioos:station:TCOON:031:1,2014-02-16T22:36:00Z,28.4073,-96.7122,0.315,1111122 
TCOON,ioos:station:TCOON:031:1,2014-02-16T23:06:00Z,28.4073,-96.7122,0.308,1111122 
TCOON,ioos:station:TCOON:031:1,2014-02-16T23:36:00Z,28.4073,-96.7122,0.302,1111122 
TCOON,ioos:station:TCOON:031:1,2014-02-17T00:06:00Z,28.4073,-96.7122,0.302,1111122 
TCOON,ioos:station:TCOON:031:1,2014-02-17T00:36:00Z,28.4073,-96.7122,0.289,1111122 
TCOON,ioos:station:TCOON:031:1,2014-02-17T01:06:00Z,28.4073,-96.7122,0.289,1111122 
TCOON,ioos:station:TCOON:031:1,2014-02-17T01:36:00Z,28.4073,-96.7122,0.289,1111122 
TCOON,ioos:station:TCOON:031:1,2014-02-17T02:06:00Z,28.4073,-96.7122,0.291,1111122 
TCOON,ioos:station:TCOON:031:1,2014-02-17T02:36:00Z,28.4073,-96.7122,0.292,1111122 
TCOON,ioos:station:TCOON:031:1,2014-02-17T03:06:00Z,28.4073,-96.7122,0.295,1111122 
TCOON,ioos:station:TCOON:031:1,2014-02-17T03:36:00Z,28.4073,-96.7122,0.298,1111122 
TCOON,ioos:station:TCOON:031:1,2014-02-17T04:06:00Z,28.4073,-96.7122,0.301,1111122 
TCOON,ioos:station:TCOON:031:1,2014-02-17T04:36:00Z,28.4073,-96.7122,0.309,1111122 
TCOON,ioos:station:TCOON:031:1,2014-02-17T05:06:00Z,28.4073,-96.7122,0.318,1111122 
TCOON,ioos:station:TCOON:031:1,2014-02-17T05:36:00Z,28.4073,-96.7122,0.32,1111122 
TCOON,ioos:station:TCOON:031:1,2014-02-17T06:06:00Z,28.4073,-96.7122,0.32,1111122 
TCOON,ioos:station:TCOON:031:1,2014-02-17T06:36:00Z,28.4073,-96.7122,0.323,1111122 
TCOON,ioos:station:TCOON:031:1,2014-02-17T07:06:00Z,28.4073,-96.7122,0.325,1111122 
TCOON,ioos:station:TCOON:031:1,2014-02-17T07:36:00Z,28.4073,-96.7122,0.329,1111122 
TCOON,ioos:station:TCOON:031:1,2014-02-17T08:06:00Z,28.4073,-96.7122,0.333,1111122 
TCOON,ioos:station:TCOON:031:1,2014-02-17T08:36:00Z,28.4073,-96.7122,0.333,1111122 
TCOON,ioos:station:TCOON:031:1,2014-02-17T09:06:00Z,28.4073,-96.7122,0.333,1111122 
TCOON,ioos:station:TCOON:031:1,2014-02-17T09:36:00Z,28.4073,-96.7122,0.332,1111122 
TCOON,ioos:station:TCOON:031:1,2014-02-17T10:06:00Z,28.4073,-96.7122,0.332,1111122 
TCOON,ioos:station:TCOON:031:1,2014-02-17T10:30:00Z,28.4073,-96.7122,0.336,1111122 
TCOON,ioos:station:TCOON:031:1,2014-02-17T11:06:00Z,28.4073,-96.7122,0.339,1111122 
TCOON,ioos:station:TCOON:031:1,2014-02-17T11:36:00Z,28.4073,-96.7122,0.346,1111122 
TCOON,ioos:station:TCOON:031:1,2014-02-17T12:06:00Z,28.4073,-96.7122,0.345,1111122 
TCOON,ioos:station:TCOON:031:1,2014-02-17T12:36:00Z,28.4073,-96.7122,0.344,1111122 
TCOON,ioos:station:TCOON:031:1,2014-02-17T13:06:00Z,28.4073,-96.7122,0.341,1111122 
TCOON,ioos:station:TCOON:031:1,2014-02-17T13:36:00Z,28.4073,-96.7122,0.339,1111122 
TCOON,ioos:station:TCOON:031:1,2014-02-17T14:06:00Z,28.4073,-96.7122,0.339,1111122 
TCOON,ioos:station:TCOON:031:1,2014-02-17T14:30:00Z,28.4073,-96.7122,0.342,1111122 
TCOON,ioos:station:TCOON:031:1,2014-02-17T15:06:00Z,28.4073,-96.7122,0.34,1111122 
TCOON,ioos:station:TCOON:031:1,2014-02-17T15:36:00Z,28.4073,-96.7122,0.342,1111122 
TCOON,ioos:station:TCOON:031:1,2014-02-17T16:06:00Z,28.4073,-96.7122,0.338,1111122 
TCOON,ioos:station:TCOON:031:1,2014-02-17T16:36:00Z,28.4073,-96.7122,0.34,1111122 
TCOON,ioos:station:TCOON:031:1,2014-02-17T17:06:00Z,28.4073,-96.7122,0.34,1111122 
TCOON,ioos:station:TCOON:031:1,2014-02-17T17:36:00Z,28.4073,-96.7122,0.34,1111122 